COSMOS 249 DEB, 18549

Orbit data source: Space-Track

COSMOS 249 DEB, 18549 is space debris in LEO originally from a launch on Sun, 20 Oct 1968 UTC launched from the Tyuratam Missile And Space Complex (TTMTR). Debris objects in space refer to the collection of defunct objects orbiting the Earth. Examples of debris include non-operational satellites, rocket bodies, and fragments generated from explosions, collisions, or faulty payload assembly.

Loading next visibility...
Identifier
18549, 1968-091DE
Orbit
LEO
Country
Flag of CISCIS
Related business
Manufacturer
Unknown
Mission
Spacecraft
Bus & Motor
Unknown
Mass
Unknown
Launch date (UTC)
1968-10-20 (57 years ago)
Launch vehicle
Unknown
Launch site
Tyuratam Missile And Space Complex (TTMTR)
Object type
Payload
Rocket body
Debris
Shape & HBR
Unknown shape, 0.1 m
Radar Cross Section
Small (<0.1 m²)

Expand to show TLE details & history
Last TLE update: 9 hours ago

TLE from 9 hours ago
0 COSMOS 249 DEB
1 18549U 68091DE  25342.19874221  .00000703  00000-0  93288-3 0  9994
2 18549  62.2205 256.4548 0648763 234.1629 284.8464 13.02060070604590
Epoch: 2025-12-08T04:46Z
TLE epoch observation values (Epoch: 2025-12-08T04:46:11.326Z)
Latitude
24.85586°
Longitude
-86.34474°
Altitude
1,159.613 km
Speed
7.322 km/s
True Right ascension
04h 09m 36s
True Declination
24° 43' 55"
Sunlit
Object was in full shadow at epoch
Visualization orbit readout
Latitude
Unknown
Longitude
Unknown
Altitude
Unknown
Speed
Unknown
Apparent Right ascension
Unknown
Apparent Declination
Unknown
Sunlit
N/A
Visualization observer readout
Local Sidereal Time
11:59:48
Azimuth
Unknown
Elevation
Unknown
Doppler factor
Unknown
Orbital elements
Apogee altitude
1,748.104 km
Perigee altitude
757.941 km
Semi-major axis
7,631.16 km
Eccentricity
0.06488
Inclination
62.2205°
RAAN
256.4548°
Arg. of periapsis
234.1629°
True anomaly
277.52795°
Mean anomaly
284.8464°
Eccentric anomaly
281.20005°
Mean motion
3.2558 °/min
Orbital period
110.57 mins
BSTAR
0.00093288
Loading maneuver chart data...
Computing Atmospheric mass density...

Documentation

Showing up to 5 results
|